Location: Carrizal
(9.8472°N, 67.3428°W)
Time: 05:48:31
(UTC+00:00)

Cosmos 1954 Rocket - Pass Details

Date: 13 April 2024
Orbit: 749 x 779 km, 74.0° (Epoch: 25 May)

Event Time Altitude Azimuth Distance (km) Brightness Sun altitude
Rises 23:01:15 0° 359° (N) 3,250 7.4 -6.0°
Reaches altitude 10° 23:03:45 10° 6° (N) 2,321 6.6 -6.6°
Maximum altitude 23:08:43 42° 76° (ENE) 1,098 4.4 -7.8°
Drops below altitude 10° 23:13:40 10° 146° (SSE) 2,310 6.1 -9.0°
Sets 23:16:08 0° 153° (SSE) 3,233 6.9 -9.6°
